| time (UTC) | temp F | wind direction | speed MPH | gust MPH | rain 1hr in | rain 24hr in | rain mn in | humidity % | barometer mb |
| 20260831221700 | 77 | 216 | 1.0 | 3.0 | 0.00 | 0.05 | 0.00 | 74 | 992.6 |
| 20260831221200 | 77 | 235 | 1.0 | 2.0 | 0.00 | 0.05 | 0.00 | 75 | 992.7 |
| 20260831220700 | 78 | 212 | 1.0 | 4.0 | 0.00 | 0.05 | 0.00 | 73 | 992.7 |
| 20260831220159 | 78 | 224 | 1.0 | 4.0 | 0.00 | 0.05 | 0.00 | 74 | 992.7 |
| 20260831215659 | 78 | 67 | 2.0 | 3.0 | 0.00 | 0.05 | 0.00 | 73 | 992.7 |
| 20260831215443 | 78 | 224 | 2.0 | 4.0 | 0.00 | 0.05 | 0.00 | 72 | 992.7 |
| 20260831214658 | 78 | 50 | 1.0 | 4.0 | 0.00 | 0.05 | 0.00 | 72 | 992.7 |
| 20260831214443 | 79 | 50 | 1.0 | 4.0 | 0.00 | 0.05 | 0.00 | 71 | 992.7 |
| 20260831213657 | 79 | 227 | 2.0 | 4.0 | 0.00 | 0.05 | 0.00 | 71 | 992.7 |
| 20260831213155 | 79 | 223 | 2.0 | 4.0 | 0.00 | 0.05 | 0.00 | 69 | 992.8 |
| 20260831212939 | 79 | 60 | 2.0 | 4.0 | 0.00 | 0.05 | 0.00 | 69 | 992.9 |
| 20260831212156 | 79 | 224 | 2.0 | 4.0 | 0.00 | 0.05 | 0.00 | 68 | 992.9 |
| 20260831211939 | 79 | 200 | 2.0 | 4.0 | 0.00 | 0.05 | 0.00 | 70 | 992.9 |
| 20260831211441 | 79 | 253 | 1.0 | 4.0 | 0.00 | 0.05 | 0.00 | 69 | 993.0 |
| 20260831210655 | 78 | 228 | 1.0 | 4.0 | 0.00 | 0.05 | 0.00 | 69 | 993.1 |
| 20260831210155 | 78 | 107 | 1.0 | 4.0 | 0.00 | 0.05 | 0.00 | 71 | 993.1 |
| 20260831205655 | 78 | 340 | 1.0 | 4.0 | 0.00 | 0.05 | 0.00 | 69 | 993.1 |
| 20260831205155 | 78 | 257 | 2.0 | 5.0 | 0.00 | 0.05 | 0.00 | 70 | 993.1 |
| 20260831204655 | 79 | 201 | 1.0 | 5.0 | 0.00 | 0.05 | 0.00 | 68 | 993.1 |
| 20260831204441 | 79 | 220 | 1.0 | 6.0 | 0.00 | 0.05 | 0.00 | 69 | 993.1 |
| 20260831203654 | 79 | 269 | 2.0 | 6.0 | 0.00 | 0.05 | 0.00 | 68 | 993.1 |
| 20260831203154 | 79 | 108 | 2.0 | 5.0 | 0.00 | 0.05 | 0.00 | 69 | 993.0 |
| 20260831202655 | 80 | 285 | 1.0 | 4.0 | 0.00 | 0.05 | 0.00 | 66 | 993.0 |
| 20260831202156 | 80 | 289 | 1.0 | 4.0 | 0.00 | 0.05 | 0.00 | 65 | 993.1 |
| 20260831201655 | 80 | 232 | 2.0 | 4.0 | 0.00 | 0.05 | 0.00 | 65 | 993.2 |
| 20260831201156 | 80 | 319 | 1.0 | 4.0 | 0.00 | 0.05 | 0.00 | 65 | 993.3 |
| 20260831200656 | 80 | 100 | 2.0 | 5.0 | 0.00 | 0.05 | 0.00 | 64 | 993.4 |
| 20260831200532 | 80 | 263 | 1.0 | 5.0 | 0.00 | 0.05 | 0.00 | 66 | 993.5 |
| 20260831200222 | 80 | 208 | 2.0 | 5.0 | 0.00 | 0.05 | 0.00 | 65 | 993.4 |
| 20260831195155 | 79 | 310 | 2.0 | 6.0 | 0.00 | 0.05 | 0.00 | 67 | 993.5 |
| 20260831194655 | 79 | 273 | 2.0 | 6.0 | 0.00 | 0.05 | 0.00 | 67 | 993.5 |
| 20260831194439 | 79 | 308 | 2.0 | 6.0 | 0.00 | 0.05 | 0.00 | 66 | 993.5 |
| 20260831193649 | 79 | 316 | 2.0 | 6.0 | 0.00 | 0.05 | 0.00 | 66 | 993.6 |
| 20260831193435 | 79 | 193 | 2.0 | 4.0 | 0.00 | 0.05 | 0.00 | 66 | 993.6 |
| 20260831192941 | 80 | 228 | 2.0 | 5.0 | 0.00 | 0.05 | 0.00 | 66 | 993.7 |
| 20260831192150 | 80 | 329 | 2.0 | 6.0 | 0.00 | 0.05 | 0.00 | 63 | 993.7 |
| 20260831191650 | 80 | 179 | 2.0 | 6.0 | 0.00 | 0.05 | 0.00 | 65 | 993.7 |
| 20260831191150 | 80 | 156 | 2.0 | 4.0 | 0.00 | 0.05 | 0.00 | 63 | 993.8 |
| 20260831190941 | 79 | 47 | 2.0 | 4.0 | 0.00 | 0.05 | 0.00 | 64 | 993.8 |
| 20260831190150 | 79 | 46 | 2.0 | 6.0 | 0.00 | 0.05 | 0.00 | 63 | 993.9 |
| 20260831185650 | 79 | 325 | 2.0 | 6.0 | 0.00 | 0.05 | 0.00 | 67 | 994.0 |
| 20260831185442 | 79 | 137 | 2.0 | 5.0 | 0.00 | 0.05 | 0.00 | 64 | 994.1 |
| 20260831184939 | 78 | 105 | 2.0 | 4.0 | 0.00 | 0.05 | 0.00 | 66 | 994.2 |
| 20260831184150 | 78 | 213 | 2.0 | 6.0 | 0.00 | 0.05 | 0.00 | 66 | 994.2 |
| 20260831183647 | 78 | 2 | 2.0 | 6.0 | 0.00 | 0.05 | 0.00 | 65 | 994.2 |
| 20260831183148 | 78 | 293 | 2.0 | 4.0 | 0.00 | 0.05 | 0.00 | 65 | 994.2 |
| 20260831182647 | 78 | 248 | 2.0 | 4.0 | 0.00 | 0.05 | 0.00 | 69 | 994.1 |
| 20260831182148 | 78 | 335 | 1.0 | 4.0 | 0.00 | 0.05 | 0.00 | 67 | 994.1 |
| 20260831181647 | 77 | 204 | 1.0 | 3.0 | 0.00 | 0.05 | 0.00 | 69 | 994.1 |
| 20260831181148 | 77 | 78 | 1.0 | 4.0 | 0.00 | 0.05 | 0.00 | 70 | 994.1 |
| 20260831180939 | 77 | 280 | 2.0 | 4.0 | 0.00 | 0.05 | 0.00 | 72 | 994.0 |
| 20260831180148 | 78 | 316 | 2.0 | 3.0 | 0.00 | 0.05 | 0.00 | 69 | 993.9 |
| 20260831175648 | 78 | 142 | 1.0 | 6.0 | 0.00 | 0.05 | 0.00 | 68 | 993.9 |
| 20260831175149 | 79 | 247 | 1.0 | 6.0 | 0.00 | 0.05 | 0.00 | 65 | 994.0 |
| 20260831174645 | 79 | 302 | 2.0 | 6.0 | 0.00 | 0.05 | 0.00 | 63 | 994.1 |
| 20260831174143 | 80 | 251 | 2.0 | 7.0 | 0.00 | 0.05 | 0.00 | 61 | 994.2 |
| 20260831173937 | 80 | 217 | 2.0 | 11.0 | 0.00 | 0.05 | 0.00 | 64 | 994.3 |
| 20260831173144 | 80 | 205 | 2.0 | 11.0 | 0.00 | 0.05 | 0.00 | 64 | 994.3 |
| 20260831172643 | 80 | 235 | 2.0 | 6.0 | 0.00 | 0.05 | 0.00 | 63 | 994.2 |
| 20260831172143 | 78 | 219 | 3.0 | 6.0 | 0.00 | 0.05 | 0.00 | 62 | 994.2 |
| 20260831171642 | 78 | 210 | 3.0 | 6.0 | 0.00 | 0.05 | 0.00 | 67 | 994.3 |
| 20260831171143 | 78 | 257 | 3.0 | 6.0 | 0.00 | 0.05 | 0.00 | 67 | 994.4 |
| 20260831170642 | 78 | 314 | 2.0 | 6.0 | 0.00 | 0.05 | 0.00 | 65 | 994.3 |
| 20260831170623 | 77 | 94 | 2.0 | 3.0 | 0.00 | 0.05 | 0.00 | 65 | 994.4 |
| 20260831165641 | 76 | 106 | 1.0 | 3.0 | 0.00 | 0.05 | 0.00 | 68 | 994.4 |
| 20260831165142 | 76 | 180 | 1.0 | 4.0 | 0.00 | 0.05 | 0.00 | 65 | 994.4 |
| 20260831164641 | 77 | 155 | 2.0 | 4.0 | 0.00 | 0.05 | 0.00 | 67 | 994.4 |
| 20260831164141 | 78 | 169 | 1.0 | 3.0 | 0.00 | 0.05 | 0.00 | 66 | 994.4 |
| 20260831163638 | 78 | 243 | 1.0 | 3.0 | 0.00 | 0.05 | 0.00 | 65 | 994.4 |
| 20260831163138 | 77 | 257 | 1.0 | 3.0 | 0.00 | 0.05 | 0.00 | 65 | 994.4 |
| 20260831162927 | 77 | 8 | 1.0 | 3.0 | 0.00 | 0.05 | 0.00 | 66 | 994.4 |
| 20260831162427 | 77 | 283 | 1.0 | 3.0 | 0.00 | 0.05 | 0.00 | 65 | 994.4 |
| 20260831161638 | 77 | 320 | 1.0 | 3.0 | 0.00 | 0.05 | 0.00 | 64 | 994.4 |
| 20260831161138 | 77 | 288 | 1.0 | 4.0 | 0.00 | 0.05 | 0.00 | 68 | 994.4 |
| 20260831160930 | 77 | 265 | 2.0 | 4.0 | 0.00 | 0.05 | 0.00 | 66 | 994.4 |
| 20260831160426 | 78 | 291 | 2.0 | 4.0 | 0.00 | 0.05 | 0.00 | 65 | 994.3 |
| 20260831155638 | 78 | 223 | 2.0 | 5.0 | 0.00 | 0.05 | 0.00 | 65 | 994.2 |
| 20260831155139 | 78 | 301 | 2.0 | 5.0 | 0.00 | 0.05 | 0.00 | 63 | 994.3 |
| 20260831154636 | 79 | 31 | 2.0 | 6.0 | 0.00 | 0.05 | 0.00 | 63 | 994.4 |
| 20260831154132 | 80 | 122 | 2.0 | 6.0 | 0.00 | 0.05 | 0.00 | 63 | 994.4 |
| 20260831153632 | 79 | 310 | 2.0 | 4.0 | 0.00 | 0.05 | 0.00 | 64 | 994.5 |
| 20260831153132 | 78 | 118 | 2.0 | 4.0 | 0.00 | 0.05 | 0.00 | 65 | 994.5 |
| 20260831152633 | 77 | 45 | 2.0 | 4.0 | 0.00 | 0.05 | 0.00 | 66 | 994.4 |
| 20260831152133 | 76 | 273 | 2.0 | 4.0 | 0.00 | 0.05 | 0.00 | 68 | 994.5 |
| 20260831151633 | 76 | 212 | 2.0 | 4.0 | 0.00 | 0.05 | 0.00 | 68 | 994.5 |
| 20260831151132 | 76 | 319 | 2.0 | 4.0 | 0.00 | 0.05 | 0.00 | 67 | 994.5 |
| 20260831150633 | 75 | 316 | 2.0 | 5.0 | 0.00 | 0.05 | 0.00 | 71 | 994.6 |
| 20260831150133 | 75 | 197 | 2.0 | 5.0 | 0.00 | 0.05 | 0.00 | 71 | 994.5 |
| 20260831145633 | 75 | 260 | 2.0 | 4.0 | 0.00 | 0.05 | 0.00 | 71 | 994.7 |
| 20260831145133 | 75 | 44 | 1.0 | 3.0 | 0.00 | 0.05 | 0.00 | 73 | 994.7 |
| 20260831144922 | 74 | 340 | 1.0 | 3.0 | 0.00 | 0.05 | 0.00 | 72 | 994.8 |
| 20260831144133 | 74 | 0 | 1.0 | 2.0 | 0.00 | 0.05 | 0.00 | 72 | 994.8 |
| 20260831143634 | 74 | 176 | 1.0 | 3.0 | 0.00 | 0.05 | 0.00 | 73 | 994.8 |
| 20260831143136 | 74 | 107 | 1.0 | 4.0 | 0.00 | 0.05 | 0.00 | 76 | 994.8 |
| 20260831142632 | 73 | 152 | 1.0 | 4.0 | 0.00 | 0.05 | 0.00 | 77 | 994.8 |
| 20260831142423 | 73 | 202 | 1.0 | 3.0 | 0.00 | 0.05 | 0.00 | 78 | 994.9 |
| 20260831141929 | 73 | 341 | 1.0 | 3.0 | 0.00 | 0.05 | 0.00 | 78 | 994.9 |
| 20260831141130 | 73 | 314 | 1.0 | 3.0 | 0.00 | 0.05 | 0.00 | 78 | 994.9 |
| 20260831140632 | 73 | 181 | 1.0 | 3.0 | 0.00 | 0.05 | 0.00 | 77 | 994.9 |
| 20260831140131 | 73 | 304 | 1.0 | 3.0 | 0.00 | 0.05 | 0.00 | 78 | 994.8 |
| 20260831135632 | 73 | 317 | 1.0 | 4.0 | 0.00 | 0.05 | 0.00 | 80 | 994.9 |
| 20260831135130 | 72 | 267 | 1.0 | 4.0 | 0.00 | 0.05 | 0.00 | 78 | 994.8 |
| 20260831134630 | 72 | 236 | 1.0 | 4.0 | 0.00 | 0.05 | 0.00 | 78 | 994.7 |
| 20260831134130 | 72 | 195 | 2.0 | 4.0 | 0.00 | 0.05 | 0.00 | 78 | 994.7 |
| 20260831133629 | 72 | 207 | 2.0 | 4.0 | 0.00 | 0.05 | 0.00 | 82 | 994.8 |
| 20260831133409 | 71 | 138 | 1.0 | 3.0 | 0.00 | 0.05 | 0.00 | 83 | 994.6 |
| 20260831132634 | 71 | 260 | 1.0 | 3.0 | 0.00 | 0.05 | 0.00 | 82 | 994.6 |
| 20260831132130 | 71 | 286 | 1.0 | 4.0 | 0.00 | 0.05 | 0.00 | 83 | 994.7 |
| 20260831131629 | 71 | 285 | 1.0 | 4.0 | 0.00 | 0.05 | 0.00 | 83 | 994.6 |
| 20260831131400 | 70 | 221 | 1.0 | 3.0 | 0.00 | 0.05 | 0.00 | 86 | 994.6 |
| 20260831130629 | 70 | 278 | 1.0 | 2.0 | 0.00 | 0.05 | 0.00 | 86 | 994.6 |
| 20260831130130 | 69 | 53 | 1.0 | 2.0 | 0.00 | 0.05 | 0.00 | 87 | 994.6 |
| 20260831125630 | 69 | 265 | 1.0 | 2.0 | 0.00 | 0.05 | 0.00 | 89 | 994.6 |
| 20260831125358 | 69 | 0 | 1.0 | 2.0 | 0.00 | 0.05 | 0.00 | 89 | 994.6 |
| 20260831124630 | 69 | 285 | 1.0 | 2.0 | 0.00 | 0.05 | 0.00 | 90 | 994.7 |
| 20260831124358 | 69 | 317 | 1.0 | 2.0 | 0.00 | 0.05 | 0.00 | 90 | 994.7 |
| 20260831123900 | 69 | 0 | 1.0 | 2.0 | 0.00 | 0.05 | 0.00 | 90 | 994.7 |
| 20260831123130 | 69 | 328 | 1.0 | 2.0 | 0.00 | 0.05 | 0.00 | 91 | 994.6 |
| 20260831122630 | 69 | 61 | 1.0 | 2.0 | 0.00 | 0.05 | 0.00 | 91 | 994.6 |
| 20260831122130 | 69 | 275 | 1.0 | 1.0 | 0.00 | 0.05 | 0.00 | 91 | 994.6 |
| 20260831121629 | 69 | 299 | 1.0 | 2.0 | 0.00 | 0.05 | 0.00 | 91 | 994.6 |
| 20260831121130 | 69 | 263 | 0.0 | 2.0 | 0.00 | 0.05 | 0.00 | 91 | 994.5 |
| 20260831120629 | 69 | 122 | 0.0 | 1.0 | 0.00 | 0.05 | 0.00 | 92 | 994.6 |
| 20260831120129 | 69 | 204 | 1.0 | 2.0 | 0.00 | 0.05 | 0.00 | 92 | 994.6 |
| 20260831115629 | 69 | 159 | 1.0 | 2.0 | 0.00 | 0.05 | 0.00 | 92 | 994.5 |
| 20260831115413 | 69 | 0 | 0.0 | 2.0 | 0.00 | 0.05 | 0.00 | 92 | 994.4 |
| 20260831114632 | 69 | 0 | 0.0 | 2.0 | 0.00 | 0.05 | 0.00 | 92 | 994.4 |
| 20260831114132 | 69 | 290 | 0.0 | 1.0 | 0.00 | 0.05 | 0.00 | 92 | 994.4 |
| 20260831113632 | 69 | 328 | 0.0 | 1.0 | 0.00 | 0.05 | 0.00 | 92 | 994.3 |
| 20260831113131 | 68 | 46 | 0.0 | 1.0 | 0.00 | 0.05 | 0.00 | 92 | 994.3 |
| 20260831112632 | 68 | 75 | 0.0 | 1.0 | 0.00 | 0.05 | 0.00 | 92 | 994.3 |
| 20260831112130 | 68 | 0 | 0.0 | 1.0 | 0.00 | 0.05 | 0.00 | 92 | 994.2 |
| 20260831111630 | 68 | 0 | 0.0 | 1.0 | 0.00 | 0.05 | 0.00 | 92 | 994.1 |
| 20260831111405 | 68 | 123 | 0.0 | 1.0 | 0.00 | 0.05 | 0.00 | 92 | 994.2 |
| 20260831110630 | 68 | 77 | 0.0 | 1.0 | 0.00 | 0.05 | 0.00 | 92 | 994.1 |
| 20260831110130 | 68 | 16 | 0.0 | 2.0 | 0.00 | 0.05 | 0.00 | 92 | 994.0 |
| 20260831105630 | 68 | 89 | 0.0 | 2.0 | 0.00 | 0.05 | 0.00 | 92 | 994.0 |
| 20260831105129 | 68 | 75 | 0.0 | 2.0 | 0.00 | 0.05 | 0.00 | 91 | 993.9 |
| 20260831104630 | 68 | 283 | 0.0 | 2.0 | 0.00 | 0.05 | 0.00 | 91 | 993.9 |
| 20260831104408 | 68 | 115 | 1.0 | 2.0 | 0.00 | 0.05 | 0.00 | 91 | 993.8 |
| 20260831103629 | 68 | 136 | 0.0 | 1.0 | 0.00 | 0.05 | 0.00 | 91 | 993.8 |
| 20260831103130 | 68 | 352 | 0.0 | 1.0 | 0.00 | 0.05 | 0.00 | 91 | 993.8 |
| 20260831102909 | 68 | 64 | 0.0 | 1.0 | 0.00 | 0.05 | 0.00 | 91 | 993.7 |
| 20260831102418 | 68 | 17 | 0.0 | 1.0 | 0.00 | 0.05 | 0.00 | 91 | 993.6 |
| 20260831102138 | 68 | 186 | 0.0 | 1.0 | 0.00 | 0.05 | 0.00 | 91 | 993.6 |
| 20260831101130 | 68 | 113 | 0.0 | 1.0 | 0.00 | 0.05 | 0.00 | 91 | 993.5 |
| 20260831100859 | 68 | 341 | 0.0 | 1.0 | 0.00 | 0.05 | 0.00 | 91 | 993.4 |
| 20260831100130 | 68 | 338 | 0.0 | 1.0 | 0.00 | 0.05 | 0.00 | 91 | 993.5 |
| 20260831095630 | 68 | 95 | 0.0 | 1.0 | 0.00 | 0.05 | 0.00 | 91 | 993.4 |
| 20260831095130 | 68 | 0 | 0.0 | 1.0 | 0.00 | 0.05 | 0.00 | 91 | 993.3 |
| 20260831094900 | 68 | 322 | 0.0 | 1.0 | 0.00 | 0.05 | 0.00 | 91 | 993.4 |
| 20260831094130 | 68 | 0 | 0.0 | 1.0 | 0.00 | 0.05 | 0.00 | 91 | 993.3 |
| 20260831093631 | 68 | 159 | 0.0 | 1.0 | 0.00 | 0.05 | 0.00 | 91 | 993.3 |
| 20260831093130 | 68 | 108 | 0.0 | 1.0 | 0.00 | 0.05 | 0.00 | 91 | 993.3 |
| 20260831092629 | 68 | 145 | 0.0 | 2.0 | 0.00 | 0.05 | 0.00 | 91 | 993.1 |
| 20260831092130 | 68 | 104 | 0.0 | 2.0 | 0.00 | 0.05 | 0.00 | 91 | 993.1 |
| 20260831091631 | 69 | 0 | 0.0 | 1.0 | 0.00 | 0.05 | 0.00 | 91 | 993.1 |
| 20260831091403 | 69 | 0 | 0.0 | 1.0 | 0.00 | 0.05 | 0.00 | 91 | 993.1 |
| 20260831090903 | 69 | 0 | 0.0 | 1.0 | 0.00 | 0.05 | 0.00 | 91 | 993.0 |
| 20260831090131 | 69 | 129 | 0.0 | 1.0 | 0.00 | 0.05 | 0.00 | 91 | 993.1 |
| 20260831085631 | 69 | 0 | 0.0 | 1.0 | 0.00 | 0.05 | 0.00 | 91 | 993.2 |
| 20260831085131 | 69 | 312 | 0.0 | 1.0 | 0.00 | 0.05 | 0.00 | 91 | 993.2 |
| 20260831084631 | 69 | 0 | 0.0 | 1.0 | 0.00 | 0.05 | 0.00 | 91 | 993.3 |
| 20260831084131 | 69 | 0 | 0.0 | 1.0 | 0.00 | 0.05 | 0.00 | 91 | 993.2 |
| 20260831083631 | 69 | 0 | 0.0 | 1.0 | 0.00 | 0.05 | 0.00 | 91 | 993.2 |
| 20260831083129 | 69 | 310 | 0.0 | 1.0 | 0.00 | 0.05 | 0.00 | 91 | 993.1 |
| 20260831082628 | 69 | 357 | 0.0 | 1.0 | 0.00 | 0.05 | 0.00 | 91 | 993.1 |
| 20260831082129 | 69 | 0 | 0.0 | 1.0 | 0.00 | 0.05 | 0.00 | 91 | 993.0 |
| 20260831081628 | 70 | 50 | 0.0 | 1.0 | 0.00 | 0.05 | 0.00 | 91 | 993.1 |
| 20260831081128 | 70 | 0 | 0.0 | 1.0 | 0.00 | 0.05 | 0.00 | 91 | 993.0 |
| 20260831080902 | 70 | 89 | 0.0 | 1.0 | 0.00 | 0.05 | 0.00 | 91 | 993.0 |
| 20260831080129 | 70 | 75 | 0.0 | 1.0 | 0.00 | 0.05 | 0.00 | 91 | 993.0 |
| 20260831075905 | 70 | 113 | 0.0 | 1.0 | 0.00 | 0.05 | 0.00 | 91 | 993.0 |
| 20260831075129 | 70 | 54 | 1.0 | 2.0 | 0.00 | 0.05 | 0.00 | 91 | 993.1 |
| 20260831074905 | 70 | 77 | 1.0 | 2.0 | 0.00 | 0.05 | 0.00 | 91 | 993.2 |
| 20260831074403 | 70 | 0 | 0.0 | 1.0 | 0.00 | 0.05 | 0.00 | 91 | 993.2 |
| 20260831073903 | 70 | 58 | 0.0 | 1.0 | 0.00 | 0.05 | 0.00 | 91 | 993.1 |
| 20260831073129 | 70 | 0 | 0.0 | 1.0 | 0.00 | 0.05 | 0.00 | 91 | 993.1 |
| 20260831072629 | 70 | 74 | 0.0 | 1.0 | 0.00 | 0.05 | 0.00 | 91 | 993.1 |
| 20260831072132 | 70 | 0 | 1.0 | 1.0 | 0.00 | 0.05 | 0.00 | 91 | 993.1 |
| 20260831071631 | 70 | 58 | 1.0 | 1.0 | 0.00 | 0.05 | 0.00 | 91 | 993.1 |
| 20260831071359 | 70 | 194 | 0.0 | 1.0 | 0.00 | 0.05 | 0.00 | 91 | 993.1 |
| 20260831070629 | 70 | 0 | 0.0 | 1.0 | 0.00 | 0.05 | 0.00 | 91 | 993.1 |
| 20260831070129 | 70 | 0 | 1.0 | 2.0 | 0.00 | 0.05 | 0.00 | 91 | 993.2 |
| 20260831065628 | 70 | 37 | 1.0 | 2.0 | 0.00 | 0.05 | 0.00 | 91 | 993.1 |
| 20260831065127 | 70 | 56 | 1.0 | 2.0 | 0.00 | 0.05 | 0.00 | 91 | 993.2 |
| 20260831064627 | 70 | 122 | 1.0 | 2.0 | 0.00 | 0.05 | 0.00 | 91 | 993.3 |
| 20260831064127 | 70 | 336 | 0.0 | 2.0 | 0.00 | 0.05 | 0.00 | 91 | 993.5 |
| 20260831063627 | 69 | 249 | 0.0 | 1.0 | 0.00 | 0.05 | 0.00 | 91 | 993.5 |
| 20260831063112 | 70 | 39 | 0.0 | 2.0 | 0.00 | 0.05 | 0.00 | 91 | 993.6 |
| 20260831062612 | 70 | 313 | 1.0 | 2.0 | 0.00 | 0.05 | 0.00 | 91 | 993.6 |
| 20260831062111 | 70 | 295 | 0.0 | 1.0 | 0.00 | 0.05 | 0.00 | 91 | 993.7 |
| 20260831061611 | 70 | 351 | 0.0 | 2.0 | 0.00 | 0.05 | 0.00 | 91 | 993.6 |
| 20260831061112 | 70 | 0 | 0.0 | 2.0 | 0.00 | 0.05 | 0.00 | 91 | 993.6 |
| 20260831060611 | 70 | 26 | 1.0 | 1.0 | 0.00 | 0.05 | 0.00 | 91 | 993.5 |
| 20260831060339 | 70 | 359 | 1.0 | 3.0 | 0.00 | 0.05 | 0.00 | 91 | 993.4 |
| 20260831055612 | 70 | 314 | 1.0 | 3.0 | 0.00 | 0.05 | 0.00 | 91 | 993.3 |
| 20260831055112 | 70 | 306 | 0.0 | 2.0 | 0.00 | 0.05 | 0.00 | 91 | 993.3 |
| 20260831054604 | 70 | 0 | 0.0 | 2.0 | 0.00 | 0.05 | 0.00 | 91 | 993.3 |
| 20260831054101 | 70 | 72 | 1.0 | 2.0 | 0.00 | 0.05 | 0.00 | 91 | 993.3 |
| 20260831053602 | 70 | 356 | 1.0 | 2.0 | 0.00 | 0.05 | 0.00 | 91 | 993.4 |
| 20260831053101 | 70 | 209 | 1.0 | 2.0 | 0.00 | 0.05 | 0.00 | 91 | 993.3 |
| 20260831052601 | 70 | 297 | 1.0 | 2.0 | 0.00 | 0.05 | 0.00 | 91 | 993.4 |
| 20260831052101 | 70 | 189 | 1.0 | 2.0 | 0.00 | 0.05 | 0.00 | 91 | 993.5 |
| 20260831051600 | 70 | 305 | 1.0 | 2.0 | 0.00 | 0.05 | 0.00 | 91 | 993.6 |
| 20260831051101 | 70 | 322 | 1.0 | 2.0 | 0.00 | 0.05 | 0.00 | 91 | 993.5 |
| 20260831050602 | 70 | 162 | 0.0 | 2.0 | 0.00 | 0.05 | 0.00 | 90 | 993.6 |
| 20260831045600 | 70 | 138 | 0.0 | 1.0 | 0.00 | 0.05 | 0.00 | 90 | 993.7 |
| 20260831045101 | 70 | 0 | 1.0 | 2.0 | 0.00 | 0.05 | 0.00 | 90 | 993.6 |
| 20260831044827 | 70 | 268 | 1.0 | 2.0 | 0.00 | 0.05 | 0.00 | 90 | 993.6 |
| 20260831044102 | 70 | 264 | 1.0 | 2.0 | 0.00 | 0.05 | 0.00 | 90 | 993.6 |
| 20260831043602 | 70 | 0 | 0.0 | 2.0 | 0.00 | 0.05 | 0.00 | 90 | 993.4 |
| 20260831043103 | 70 | 81 | 0.0 | 2.0 | 0.00 | 0.05 | 0.00 | 90 | 993.4 |
| 20260831042602 | 70 | 122 | 1.0 | 2.0 | 0.00 | 0.05 | 0.00 | 90 | 993.4 |
| 20260831042103 | 70 | 87 | 1.0 | 2.0 | 0.00 | 0.05 | 0.00 | 90 | 993.4 |
| 20260831041602 | 70 | 71 | 1.0 | 2.0 | 0.00 | 0.05 | 0.00 | 90 | 993.4 |
| 20260831041104 | 70 | 114 | 1.0 | 2.0 | 0.00 | 0.05 | 0.00 | 90 | 993.4 |
| 20260831040608 | 71 | 349 | 1.0 | 2.0 | 0.00 | 0.05 | 0.00 | 90 | 993.4 |
| 20260831040345 | 71 | 70 | 1.0 | 2.0 | 0.00 | 0.05 | 0.00 | 90 | 993.4 |
| 20260831035601 | 71 | 108 | 1.0 | 2.0 | 0.00 | 0.05 | 0.00 | 90 | 993.4 |
| 20260831035103 | 71 | 0 | 1.0 | 2.0 | 0.00 | 0.05 | 0.00 | 90 | 993.5 |
| 20260831034601 | 71 | 28 | 0.0 | 2.0 | 0.00 | 0.05 | 0.00 | 90 | 993.4 |
| 20260831034101 | 70 | 172 | 0.0 | 1.0 | 0.00 | 0.05 | 0.00 | 90 | 993.4 |
| 20260831033825 | 70 | 0 | 0.0 | 1.0 | 0.00 | 0.05 | 0.00 | 90 | 993.4 |
| 20260831033102 | 70 | 48 | 0.0 | 1.0 | 0.00 | 0.05 | 0.00 | 90 | 993.5 |
| 20260831032836 | 70 | 0 | 1.0 | 2.0 | 0.00 | 0.05 | 0.00 | 89 | 993.6 |
| 20260831032101 | 70 | 17 | 1.0 | 2.0 | 0.00 | 0.05 | 0.00 | 89 | 993.6 |
| 20260831031601 | 70 | 7 | 1.0 | 2.0 | 0.00 | 0.05 | 0.00 | 89 | 993.8 |
| 20260831031326 | 70 | 262 | 1.0 | 2.0 | 0.00 | 0.05 | 0.00 | 89 | 993.8 |
| 20260831030601 | 70 | 284 | 1.0 | 2.0 | 0.00 | 0.05 | 0.00 | 89 | 993.7 |
| 20260831025602 | 70 | 38 | 0.0 | 2.0 | 0.00 | 0.05 | 0.00 | 89 | 993.8 |
| 20260831025102 | 70 | 344 | 1.0 | 2.0 | 0.00 | 0.05 | 0.00 | 89 | 993.8 |
| 20260831024834 | 70 | 287 | 1.0 | 2.0 | 0.01 | 0.05 | 0.00 | 89 | 994.0 |
| 20260831024102 | 70 | 223 | 1.0 | 2.0 | 0.04 | 0.05 | 0.00 | 89 | 994.1 |
| 20260831023828 | 70 | 268 | 1.0 | 2.0 | 0.04 | 0.05 | 0.00 | 88 | 994.2 |
| 20260831023102 | 70 | 38 | 1.0 | 2.0 | 0.04 | 0.05 | 0.00 | 88 | 994.1 |
| 20260831022601 | 70 | 184 | 1.0 | 2.0 | 0.04 | 0.05 | 0.00 | 88 | 994.1 |
| 20260831022101 | 70 | 269 | 1.0 | 3.0 | 0.04 | 0.05 | 0.00 | 88 | 994.2 |
| 20260831021602 | 71 | 338 | 1.0 | 4.0 | 0.04 | 0.05 | 0.00 | 88 | 994.0 |
| 20260831021103 | 71 | 123 | 1.0 | 4.0 | 0.04 | 0.05 | 0.00 | 88 | 994.1 |
| 20260831020604 | 71 | 290 | 2.0 | 5.0 | 0.04 | 0.05 | 0.00 | 88 | 994.1 |
| 20260831015601 | 72 | 278 | 2.0 | 10.0 | 0.04 | 0.04 | 0.00 | 87 | 994.1 |
| 20260831015101 | 73 | 159 | 2.0 | 5.0 | 0.04 | 0.04 | 0.00 | 87 | 994.1 |
| 20260831014601 | 73 | 111 | 2.0 | 5.0 | 0.04 | 0.04 | 0.00 | 87 | 993.8 |
| 20260831014100 | 73 | 296 | 2.0 | 4.0 | 0.01 | 0.01 | 0.00 | 87 | 993.9 |
| 20260831013600 | 74 | 0 | 2.0 | 4.0 | 0.00 | 0.01 | 0.00 | 87 | 993.9 |
| 20260831013101 | 74 | 0 | 2.0 | 4.0 | 0.00 | 0.01 | 0.00 | 87 | 993.8 |
| 20260831012603 | 74 | 220 | 2.0 | 4.0 | 0.00 | 0.01 | 0.00 | 87 | 993.8 |
| 20260831012101 | 74 | 298 | 2.0 | 4.0 | 0.00 | 0.00 | 0.00 | 87 | 993.9 |
| 20260831011600 | 74 | 296 | 1.0 | 5.0 | 0.00 | 0.00 | 0.00 | 87 | 993.8 |
| 20260831011101 | 74 | 85 | 1.0 | 6.0 | 0.00 | 0.00 | 0.00 | 87 | 993.7 |
| 20260831010604 | 74 | 252 | 2.0 | 6.0 | 0.00 | 0.00 | 0.00 | 87 | 993.6 |
| 20260831010355 | 75 | 191 | 2.0 | 5.0 | 0.00 | 0.00 | 0.00 | 87 | 993.5 |
| 20260831005600 | 75 | 315 | 1.0 | 4.0 | 0.00 | 0.00 | 0.00 | 87 | 993.5 |
| 20260831005356 | 75 | 271 | 1.0 | 3.0 | 0.00 | 0.00 | 0.00 | 86 | 993.4 |
| 20260831004602 | 75 | 287 | 1.0 | 4.0 | 0.00 | 0.00 | 0.00 | 86 | 993.3 |
| 20260831004102 | 75 | 270 | 1.0 | 4.0 | 0.00 | 0.00 | 0.00 | 86 | 993.2 |
| 20260831003601 | 75 | 284 | 1.0 | 3.0 | 0.00 | 0.00 | 0.00 | 85 | 993.2 |
| 20260831003353 | 76 | 289 | 1.0 | 4.0 | 0.00 | 0.00 | 0.00 | 85 | 993.2 |
| 20260831002601 | 76 | 113 | 2.0 | 4.0 | 0.00 | 0.00 | 0.00 | 84 | 993.0 |
| 20260831002100 | 76 | 269 | 1.0 | 4.0 | 0.00 | 0.00 | 0.00 | 84 | 993.0 |
| 20260831001853 | 76 | 326 | 1.0 | 3.0 | 0.00 | 0.00 | 0.00 | 83 | 992.8 |
| 20260831001100 | 76 | 0 | 1.0 | 4.0 | 0.00 | 0.00 | 0.00 | 82 | 992.9 |
| 20260831000602 | 76 | 231 | 1.0 | 4.0 | 0.00 | 0.00 | 0.00 | 82 | 992.9 |
| 20260830235603 | 77 | 317 | 1.0 | 3.0 | 0.00 | 0.00 | 0.00 | 81 | 992.8 |
| 20260830235150 | 77 | 9 | 1.0 | 4.0 | 0.00 | 0.00 | 0.00 | 81 | 992.9 |
| 20260830235128 | 77 | 310 | 1.0 | 4.0 | 0.00 | 0.00 | 0.00 | 81 | 992.9 |
| 20260830234101 | 77 | 214 | 2.0 | 4.0 | 0.00 | 0.00 | 0.00 | 81 | 992.8 |
| 20260830233601 | 77 | 305 | 1.0 | 4.0 | 0.00 | 0.00 | 0.00 | 82 | 992.8 |
| 20260830233350 | 77 | 295 | 1.0 | 4.0 | 0.00 | 0.00 | 0.00 | 81 | 992.8 |
| 20260830232851 | 77 | 248 | 1.0 | 4.0 | 0.00 | 0.00 | 0.00 | 80 | 992.9 |
| 20260830232101 | 77 | 309 | 1.0 | 3.0 | 0.00 | 0.00 | 0.00 | 80 | 992.9 |
| 20260830231854 | 78 | 252 | 1.0 | 4.0 | 0.00 | 0.00 | 0.00 | 80 | 993.0 |
| 20260830231101 | 78 | 31 | 2.0 | 4.0 | 0.00 | 0.00 | 0.00 | 80 | 993.1 |
| 20260830230602 | 78 | 318 | 2.0 | 4.0 | 0.00 | 0.00 | 0.00 | 80 | 993.0 |
| 20260830230108 | 78 | 180 | 1.0 | 3.0 | 0.00 | 0.00 | 0.00 | 79 | 993.0 |
| 20260830225609 | 78 | 135 | 1.0 | 3.0 | 0.00 | 0.00 | 0.00 | 79 | 992.9 |
| 20260830225103 | 79 | 345 | 1.0 | 3.0 | 0.00 | 0.00 | 0.00 | 78 | 992.8 |
| 20260830224646 | 79 | 358 | 1.0 | 3.0 | 0.00 | 0.00 | 0.00 | 76 | 992.8 |
| 20260830224632 | 79 | 310 | 1.0 | 3.0 | 0.00 | 0.00 | 0.00 | 77 | 992.7 |
| 20260830223602 | 80 | 16 | 1.0 | 3.0 | 0.00 | 0.00 | 0.00 | 75 | 992.9 |
| 20260830223102 | 80 | 11 | 1.0 | 4.0 | 0.00 | 0.00 | 0.00 | 74 | 992.9 |